TimeEET,TemperatureF,Dew PointF,Humidity,Sea Level PressureIn,VisibilityMPH,Wind Direction,Wind SpeedMPH,Gust SpeedMPH,PrecipitationIn,Events,Conditions,WindDirDegrees,DateUTC
12:00 AM,44.6,41.0,87,30.30,-9999.0,East,4.6,-,N/A,,Clear,100,2013-02-24 22:00:00
1:00 AM,44.6,41.0,87,30.30,-9999.0,WSW,4.6,-,N/A,,Clear,240,2013-02-24 23:00:00
2:00 AM,42,40,88,30.26,6,Calm,Calm,,,,,,2013-02-25 00:00:00
2:00 AM,42.8,39.2,87,30.30,-9999.0,Calm,Calm,-,N/A,,Clear,0,2013-02-25 00:00:00
3:00 AM,41.0,41.0,100,30.30,0.1,NNE,2.3,-,N/A,Fog,Fog,20,2013-02-25 01:00:00
4:00 AM,41.0,39.2,93,30.30,0.2,Calm,Calm,-,N/A,Fog,Fog,0,2013-02-25 02:00:00
5:00 AM,39.2,39.2,100,30.30,0.1,Calm,Calm,-,N/A,Fog,Fog,0,2013-02-25 03:00:00
6:00 AM,39.2,37.4,93,30.30,0.4,Calm,Calm,-,N/A,Fog,Fog,0,2013-02-25 04:00:00
7:00 AM,39.2,39.2,100,30.33,0.1,NNE,4.6,-,N/A,Fog,Fog,30,2013-02-25 05:00:00
8:00 AM,45,44,96,30.31,0,ENE,4.5,,,Fog,Partial Fog,60,2013-02-25 06:00:00
8:00 AM,44.6,44.6,100,30.33,0.5,ENE,4.6,-,N/A,Fog,Fog,60,2013-02-25 06:00:00
9:00 AM,51.8,48.2,88,30.33,3.7,ENE,6.9,-,N/A,,Unknown,60,2013-02-25 07:00:00
10:00 AM,59.0,48.2,67,30.33,-9999.0,ENE,9.2,-,N/A,,Clear,70,2013-02-25 08:00:00
11:00 AM,60.8,46.4,59,30.33,-9999.0,NE,4.6,-,N/A,,Clear,50,2013-02-25 09:00:00
12:00 PM,64.4,44.6,49,30.30,-9999.0,NNE,4.6,-,N/A,,Clear,20,2013-02-25 10:00:00
1:00 PM,66.2,42.8,43,30.27,-9999.0,NNE,4.6,-,N/A,,Clear,30,2013-02-25 11:00:00
2:00 PM,68,43,29,30.22,7,North,4.5,,,,Clear,350,2013-02-25 12:00:00
2:00 PM,68.0,42.8,40,30.24,-9999.0,WSW,4.6,-,N/A,,Clear,250,2013-02-25 12:00:00
3:00 PM,68.0,41.0,37,30.24,-9999.0,NNE,4.6,-,N/A,,Clear,30,2013-02-25 13:00:00
4:00 PM,66.2,42.8,43,30.21,-9999.0,NNE,11.5,-,N/A,,Clear,30,2013-02-25 14:00:00
5:00 PM,64.4,42.8,45,30.24,-9999.0,North,9.2,-,N/A,,Clear,10,2013-02-25 15:00:00
6:00 PM,59.0,42.8,55,30.24,-9999.0,NNE,4.6,-,N/A,,Clear,20,2013-02-25 16:00:00
7:00 PM,55.4,44.6,67,30.24,-9999.0,Calm,Calm,-,N/A,,Clear,0,2013-02-25 17:00:00
8:00 PM,54,41,51,30.24,7,NNE,2.2,,,,Clear,30,2013-02-25 18:00:00
8:00 PM,53.6,41.0,62,30.27,-9999.0,NNE,4.6,-,N/A,,Clear,30,2013-02-25 18:00:00
9:00 PM,51.8,41.0,67,30.27,-9999.0,North,6.9,-,N/A,,Clear,350,2013-02-25 19:00:00
10:00 PM,50.0,41.0,71,30.27,-9999.0,NNE,6.9,-,N/A,,Clear,30,2013-02-25 20:00:00
11:00 PM,51.8,37.4,58,30.24,-9999.0,NNE,6.9,-,N/A,,Clear,30,2013-02-25 21:00:00